Location: Harwich
(41.7160°N, 69.9939°W)
Time: 03:06:13
(UTC+02:00)

AO-27 - Pass Details

Date: 16 September 2024
Orbit: 783 x 796 km, 98.8° (Epoch: 11 October)

Event Time Altitude Azimuth Distance (km) Brightness Sun altitude
Exits shadow 01:34:05 - 78° (ENE) 2,446 9.6 -9.3°
Reaches altitude 10° 01:34:44 10° 71° (ENE) 2,367 9.6 -9.4°
Maximum altitude 01:36:02 11° 57° (ENE) 2,303 9.7 -9.6°
Drops below altitude 10° 01:37:20 10° 42° (NE) 2,369 9.9 -9.9°
Sets 01:41:39 0° 8° (N) 3,300 11.0 -10.7°
